Flag for Canada Weather past 2 weeks in Kamloops, British Columbia, Canada

Now
75 °F

Passing clouds.


Feels Like: 77 °F
Forecast: 58 / 93 °F
Wind: 2 mph from North

Location: Kamloops

Current Time: Jul 30, 2014 at 10:30:04 AM

Latest Report: Jul 30, 2014 at 10:00 AM


Visibility: 40 mi

Pressure: 30.07 "Hg

Humidity: 34%

Dew point: 45 °F

Location of KamloopsLocation

Historic Weather in Kamloops — Graph

°F

Kamloops temperature yesterday

Maximum temperature yesterday: 95 °F (at 5:00 PM)
Minimum temperature yesterday: 59 °F (at 5:00 AM)
Average temperature yesterday: 78 °F

Past Weeks' High & Low Weather Summary

 TemperatureHumidityPressure
High102 °F (Jul 15, 4:00 PM)94% (Jul 23, 9:00 PM)30.22 "Hg (Jul 23, 9:00 PM)
Low48 °F (Jul 25, 5:00 AM)10% (Jul 17, 7:00 PM)29.57 "Hg (Jul 19, 4:00 PM)
Average72 °F46%29.92 "Hg
* Reported Jul 15 9:00 AM — Jul 30 9:00 AM, Kamloops, Weather by CustomWeather, © 2014

Note: Actual official high and low records may vary slightly from our data, if they occured in-between our weather recording intervals... More about our weather records

Advertising

Kamloops weather history for previous 24 hours

 ConditionsComfort  
Time TempWeatherWind HumidityBarometerVisibility
9:00 AM
Jul 30
72 °FPassing clouds.3 mph38%30.09 "Hg40 mi
8:00 AM68 °FSunny.2 mph43%30.09 "Hg40 mi
7:00 AM64 °FSunny.No wind46%30.08 "Hg40 mi
6:00 AM59 °FClear.No wind68%30.08 "Hg40 mi
5:00 AM63 °FClear.No wind45%30.06 "Hg40 mi
4:00 AM63 °FClear.3 mph45%30.04 "Hg40 mi
3:00 AM64 °FClear.3 mph56%30.03 "Hg40 mi
2:00 AM61 °FClear.7 mph52%30.01 "Hg40 mi
1:00 AM68 °FClear.No wind40%29.98 "Hg40 mi
12:00 AM72 °FClear.3 mph33%29.97 "Hg40 mi
11:00 PM
Jul 29
81 °FClear.3 mph20%29.95 "Hg40 mi
10:00 PM86 °FPassing clouds.6 mph13%29.93 "Hg40 mi
9:00 PM86 °FPassing clouds.10 mph17%29.91 "Hg40 mi
8:00 PM86 °FPassing clouds.3 mph25%29.90 "Hg40 mi
7:00 PM95 °FPassing clouds.8 mph11%29.89 "Hg40 mi
6:00 PM95 °FPassing clouds.5 mph16%29.90 "Hg40 mi
5:00 PM95 °FPassing clouds.No wind15%29.92 "Hg40 mi
4:00 PM93 °FPassing clouds.5 mph20%29.94 "Hg40 mi
3:00 PM90 °FPassing clouds.5 mph21%29.98 "Hg40 mi
2:00 PM90 °FPassing clouds.3 mph16%30.01 "Hg40 mi
1:00 PM84 °FSunny.5 mph20%30.03 "Hg40 mi
12:00 PM82 °FSunny.3 mph25%30.06 "Hg40 mi
11:00 AM77 °FSunny.5 mph32%30.09 "Hg40 mi
10:00 AM73 °FSunny.3 mph33%30.10 "Hg40 mi
Weather by CustomWeather, © 2014

See weather overviewHow to use our weather pages